Location: Wells
(51.2093°N, 2.6446°W)
Time: 07:54:22
(UTC+01:00)

SO-50 - Pass Details

Date: 17 March 2026
Orbit: 567 x 673 km, 64.6° (Epoch: 17 April)

Event Time Altitude Azimuth Distance (km) Brightness Sun altitude
Rises 18:51:22 0° 237° (WSW) 2,945 ? -6.0°
Reaches altitude 10° 18:53:41 10° 242° (WSW) 2,054 ? -6.3°
Maximum altitude 18:58:16 52° 319° (NW) 823 ? -7.0°
Drops below altitude 10° 19:02:58 10° 37° (NE) 2,107 ? -7.8°
Sets 19:05:22 0° 42° (NE) 3,030 ? -8.1°
